CAPE
953 1617 795 983 1459 1555 1220 1120 875 763 730 774 578 524 701 787 609 430 242 277 282 196 188 354 401 307 282 201 128 26 50 76 63 44 30 59 74 31 26 23 23 24 18
1214 1844 862 1043 1413 1738 1317 1254 1128 995 854 842 707 678 737 746 641 439 425 501 538 506 410 335 280 229 98 80 38 13 25 14 24 30 21 42 20 10 1 0 10 13 8
1460 1712 1206 998 1321 1476 1301 1226 1213 1270 1131 889 758 786 833 688 692 863 770 548 561 411 284 233 191 71 25 1 0 2 3 0 27 37 19 15 13 5 1 5 10 12 8
1391 1486 1389 937 947 1225 1169 1280 1273 1356 1290 1081 919 895 934 853 887 806 610 515 372 351 257 149 78 4 2 0 0 0 0 0 0 0 17 11 13 11 8 5 5 4 4
1686 1519 1340 844 592 358 106 82 894 1300 1318 1132 1010 971 1051 928 932 664 530 415 363 209 119 96 10 8 0 0 0 0 0 0 3 18 12 16 13 6 4 4 2 2 2
1736 1445 974 461 227 57 0 0 265 963 1240 1147 1108 1105 1098 949 743 498 325 316 294 113 17 29 4 2 0 0 0 0 0 0 0 8 0 4 13 10 2 0 1 3 4
1680 1554 1117 547 230 244 42 18 0 719 1148 1175 1215 1149 1090 845 516 313 224 200 105 27 7 7 5 0 0 0 0 0 0 0 2 0 0 3 7 7 2 2 4 5 5
1541 1681 679 437 286 191 109 9 2 421 749 1031 1069 1070 950 575 258 116 85 40 26 11 13 2 3 0 0 0 0 0 0 0 0 0 1 2 6 3 4 4 3 4 4
1137 1423 1362 1140 414 193 133 25 0 239 587 1034 1088 948 784 442 125 55 88 106 33 0 0 2 0 0 0 0 0 0 0 0 0 0 0 2 6 5 4 4 5 5 5
1003 921 1181 1061 774 611 352 228 204 195 270 481 728 780 562 202 223 195 207 115 16 0 0 0 0 0 0 0 0 0 0 0 1 0 0 2 6 6 5 3 7 7 7
896 701 543 1012 853 669 491 354 170 142 217 233 384 294 99 123 168 176 238 125 25 0 0 0 0 0 0 0 0 0 0 4 2 0 0 3 5 8 7 6 6 5 7
640 809 825 797 706 633 367 147 58 224 270 189 138 20 13 40 204 222 254 113 0 0 0 0 0 0 0 0 0 0 1 4 4 0 1 3 5 7 7 7 6 7 7
586 588 663 749 645 512 302 219 133 123 146 114 5 0 0 37 172 151 221 80 0 0 0 0 0 0 0 0 0 0 0 0 7 0 0 5 5 8 6 6 4 3 2
603 508 527 245 108 21 1 1 69 92 55 2 0 0 40 32 125 222 133 40 0 0 0 0 0 0 0 0 0 0 0 4 4 0 1 3 4 9 8 6 3 3 1
460 209 409 202 50 16 0 0 1 2 0 4 9 12 41 36 93 165 123 32 0 0 0 0 2 0 0 0 0 1 2 6 1 0 1 3 1 5 3 6 5 3 2
221 247 140 239 23 8 1 0 0 0 0 9 30 24 45 50 109 157 132 98 22 9 0 0 1 0 0 0 0 1 3 3 7 1 0 1 0 4 4 3 5 4 1
43 9 25 7 29 1 4 1 1 0 0 0 0 21 27 71 143 154 183 199 124 109 37 8 0 0 0 0 0 0 0 1 4 6 0 0 0 0 3 3 4 2 1
19 8 2 6 2 2 4 1 2 1 0 6 32 37 52 109 95 138 150 189 180 148 68 6 0 0 0 0 0 0 0 0 0 4 4 0 0 0 0 2 4 1 0
11 14 6 2 2 2 2 3 3 2 4 5 34 39 71 97 96 78 54 62 92 73 41 1 0 0 0 0 0 0 0 0 0 0 0 2 3 0 0 0 0 1 0
0 17 6 2 3 2 2 3 5 10 11 5 19 27 54 94 90 61 52 58 34 35 2 0 3 0 0 0 0 0 0 0 0 0 0 0 0 0 2 5 0 0 0
0 2 14 1 5 3 2 3 3 3 1 0 3 9 23 46 63 60 58 65 53 9 0 19 12 4 1 0 0 0 0 0 0 0 0 0 0 0 0 1 4 0 0
0 2 10 6 7 3 2 3 2 2 1 6 10 5 2 39 25 19 31 57 68 24 53 64 74 54 21 0 0 13 11 2 0 0 0 0 0 0 0 0 0 1 17
0 0 7 7 2 4 8 5 5 5 11 18 35 15 0 21 40 10 10 44 82 101 117 122 133 122 93 53 59 83 49 75 119 41 0 0 0 0 0 0 0 0 0
0 0 5 8 4 3 8 2 0 0 3 4 2 1 7 8 30 35 34 37 90 103 135 184 190 165 54 30 41 100 156 208 27 56 61 11 0 0 0 0 0 0 0
2 0 0 1 14 2 8 6 1 2 1 2 3 6 2 0 20 51 18 1 8 31 64 147 136 121 120 36 25 86 117 114 139 24 25 45 7 0 0 0 0 0 0
21 0 0 2 9 8 1 16 6 14 3 3 2 1 2 0 1 13 3 4 0 0 2 26 48 25 33 62 34 92 23 61 96 104 72 73 56 10 0 0 0 0 0
CIN
-30 -56 -151 -117 -17 -11 -50 -78 -134 -139 -127 -71 -94 -68 -17 -0 -35 -60 -78 -19 -3 -10 -17 -1 -0 -0 -0 -1 -11 -59 -43 -10 -10 -19 -25 -16 -13 -14 -15 -30 -0 -0 -0
-19 -26 -134 -97 -21 -0 -0 -4 -27 -53 -122 -76 -66 -40 -24 -2 -1 -30 -21 -4 -0 -0 -0 -1 -0 -2 -8 -7 -12 -49 -22 -43 -36 -28 -18 -38 -62 -4 -2 -0 -1 -0 -0
-26 -12 -48 -77 -18 -1 -0 -3 -2 -0 -22 -70 -73 -24 -13 -18 -0 -0 -0 -1 -0 -0 -0 -1 -0 -13 -40 -0 -0 -66 -32 -0 -49 -35 -1 -0 -0 -0 -0 -5 -0 -0 -0
-32 -12 -1 -59 -28 -3 -7 -1 -0 -0 -8 -25 -42 -16 -5 -3 -1 -1 -1 -1 -2 -0 -0 -3 -16 -0 -0 -0 -0 -0 -0 -0 -0 -0 -1 -0 -0 -0 -1 -0 -0 -0 -0
-4 -1 -1 -57 -44 -61 -168 -3 -4 -0 -1 -22 -22 -16 -0 -2 -0 -1 -1 -2 -1 -3 -2 -19 -51 -0 -0 -0 -0 -0 -0 -0 -30 -12 -1 -0 -0 -0 -0 -0 -0 -0 -0
-0 -0 -51 -181 -232 -220 -0 -1 -1 -3 -3 -7 -10 -17 -3 -2 -1 -5 -5 -5 -1 -10 -27 -46 -21 -0 -0 -0 -0 -0 -0 -0 -0 -1 -0 -1 -0 -0 -0 -0 -0 -0 -0
-0 -0 -48 -155 -202 -189 -234 -8 -0 -0 -0 -0 -0 -0 -2 -5 -20 -12 -20 -14 -20 -34 -103 -50 -1 -0 -0 -0 -0 -0 -0 -0 -2 -0 -0 -0 -0 -0 -0 -0 -0 -0 -0
-5 -0 -104 -174 -182 -185 -143 -63 -74 -1 -2 -2 -1 -0 -3 -34 -49 -23 -17 -30 -54 -76 -86 -1 -0 -0 -0 -0 -0 -0 -0 -0 -0 -0 -1 -1 -0 -0 -0 -0 -0 -0 -0
-38 -1 -0 -6 -89 -122 -111 -111 -0 -4 -4 -1 -0 -7 -8 -20 -19 -78 -16 -12 -60 -0 -0 -0 -0 -0 -0 -0 -0 -0 -0 -0 -2 -0 -0 -0 -0 -0 -1 -0 -0 -0 -0
-35 -24 -0 -0 -0 -0 -13 -26 -6 -1 -0 -18 -13 -6 -8 -27 -4 -47 -13 -11 -75 -0 -0 -0 -0 -0 -0 -0 -0 -0 -0 -0 -1 -0 -0 -1 -0 -0 -0 -1 -0 -0 -0
-11 -24 -26 -0 -1 -1 -0 -1 -5 -5 -9 -3 -5 -18 -17 -13 -1 -13 -3 -28 -86 -0 -0 -0 -0 -0 -0 -0 -0 -0 -0 -0 -1 -0 -0 -1 -0 -0 -0 -0 -0 -0 -0
-4 -3 -0 -0 -3 -12 -18 -74 -60 -20 -2 -0 -4 -18 -39 -3 -0 -2 -1 -15 -0 -0 -0 -0 -0 -0 -0 -0 -0 -0 -2 -1 -2 -0 -0 -1 -0 -0 -1 -0 -0 -0 -0
-9 -1 -0 -0 -0 -0 -0 -2 -20 -25 -5 -4 -8 -0 -0 -7 -7 -5 -0 -7 -0 -0 -0 -0 -0 -0 -0 -0 -0 -0 -0 -0 -2 -0 -0 -1 -0 -0 -1 -0 -0 -0 -0
-6 -9 -0 -5 -63 -70 -0 -22 -3 -7 -22 -14 -0 -0 -5 -15 -1 -2 -2 -0 -0 -0 -0 -0 -0 -0 -0 -0 -0 -0 -0 -0 -1 -0 -0 -2 -1 -0 -0 -0 -0 -0 -0
-31 -61 -2 -10 -69 -60 -0 -0 -0 -6 -0 -28 -0 -0 -8 -7 -5 -1 -1 -3 -0 -0 -0 -0 -0 -0 -0 -0 -0 -0 -0 -0 -1 -0 -1 -2 -1 -1 -0 -0 -0 -0 -0
-70 -64 -50 -10 -89 -10 -0 -0 -0 -0 -0 -20 -0 -17 -1 -6 -6 -3 -5 -0 -0 -0 -0 -0 -0 -0 -0 -0 -0 -0 -0 -0 -1 -0 -0 -1 -0 -2 -2 -0 -0 -0 -0
-189 -57 -115 -24 -36 -2 -12 -0 -0 -0 -0 -0 -0 -0 -10 -3 -7 -2 -6 -0 -1 -0 -7 -1 -0 -0 -0 -0 -0 -0 -0 -0 -0 -0 -0 -0 -0 -0 -3 -2 -1 -0 -0
-253 -0 -2 -0 -0 -0 -0 -0 -0 -0 -0 -5 -0 -1 -3 -7 -16 -14 -7 -2 -1 -1 -2 -1 -0 -0 -0 -0 -0 -0 -0 -0 -0 -0 -0 -0 -0 -0 -0 -1 -2 -0 -0
-213 -256 -0 -0 -0 -0 -0 -0 -0 -0 -0 -0 -0 -9 -7 -13 -22 -28 -40 -19 -19 -14 -26 -1 -0 -0 -0 -0 -0 -0 -0 -0 -0 -0 -0 -0 -1 -0 -0 -0 -0 -1 -0
-38 -207 -0 -0 -0 -0 -0 -9 -0 -0 -0 -0 -3 -8 -9 -4 -44 -46 -44 -51 -61 -55 -52 -0 -68 -0 -0 -0 -0 -0 -0 -0 -0 -0 -0 -0 -0 -0 -0 -32 -0 -0 -0
-0 -1 -1 -0 -0 -0 -0 -0 -0 -0 -0 -0 -13 -34 -38 -28 -33 -34 -34 -34 -33 -33 -0 -65 -66 -77 -78 -0 -0 -0 -0 -0 -0 -0 -0 -0 -0 -0 -0 -0 -14 -0 -0
-0 -0 -0 -0 -0 -0 -0 -0 -0 -0 -0 -0 -18 -55 -66 -79 -67 -66 -58 -46 -39 -31 -26 -23 -17 -33 -24 -4 -0 -51 -39 -39 -38 -0 -0 -0 -0 -0 -0 -0 -0 -0 -3
-0 -0 -0 -0 -0 -0 -0 -0 -0 -0 -0 -0 -0 -12 -0 -90 -69 -36 -25 -51 -34 -25 -31 -21 -26 -20 -16 -32 -44 -10 -10 -7 -11 -39 -0 -0 -0 -0 -0 -0 -0 -0 -0
-0 -0 -1 -0 -0 -0 -0 -0 -0 -0 -0 -0 -0 -0 -47 -63 -64 -29 -63 -52 -55 -49 -27 -21 -4 -22 -19 -20 -40 -32 -24 -10 -7 -7 -4 -33 -0 -0 -0 -0 -0 -0 -0
-145 -0 -0 -0 -0 -0 -1 -0 -0 -0 -0 -0 -0 -16 -36 -0 -58 -34 -37 -94 -89 -67 -54 -24 -13 -26 -19 -12 -36 -28 -0 -12 -10 -12 -1 -1 -28 -0 -0 -0 -0 -0 -0
-240 -0 -0 -0 -1 -0 -4 -0 -0 -0 -0 -0 -0 -0 -17 -0 -25 -28 -72 -96 -0 -0 -44 -30 -18 -23 -31 -8 -11 -17 -30 -8 -0 -1 -1 -1 -3 -2 -0 -0 -0 -0 -0
Wind_Speed
19 13 4 1 3 6 7 7 7 7 6 6 5 5 5 2 5 6 9 8 9 10 11 11 11 13 13 13 14 14 17 18 19 20 21 22 23 24 24 24 24 23 23
19 11 4 3 5 6 8 8 7 7 9 8 6 5 5 3 2 5 7 8 10 10 10 11 11 12 13 13 15 16 17 18 19 20 21 22 22 23 22 21 21 21 22
15 12 4 5 5 6 8 10 10 9 8 9 9 7 6 5 4 2 4 8 8 12 11 10 10 10 13 14 14 15 17 19 20 20 20 20 20 20 20 20 20 20 20
13 9 4 6 9 9 9 10 11 11 10 9 9 9 7 6 5 3 5 7 8 10 9 9 10 10 12 12 13 15 17 19 20 18 17 18 19 20 20 20 20 20 19
12 8 7 6 11 13 16 31 14 12 12 10 11 9 8 7 5 4 5 6 8 7 7 9 8 8 8 11 13 15 17 18 19 16 17 17 18 18 18 19 19 19 18
10 7 4 5 6 17 24 35 22 17 14 15 14 12 9 7 6 6 5 5 6 6 7 7 6 6 7 10 11 13 15 14 13 14 15 16 16 16 18 19 18 18 17
9 7 5 3 5 2 13 27 38 17 15 15 14 15 12 9 8 7 6 5 5 5 6 6 6 6 7 9 12 12 8 10 13 13 15 15 16 17 18 18 18 17 17
9 5 4 3 10 8 2 4 33 38 17 16 16 13 13 11 12 7 6 6 5 5 4 6 6 7 8 9 8 6 7 7 13 14 15 14 16 16 18 16 16 16 17
11 5 2 2 5 6 9 27 36 24 14 15 14 13 11 11 10 10 7 7 7 6 5 6 6 7 8 8 6 3 6 9 12 13 14 14 15 16 16 15 16 16 17
12 6 8 2 2 3 4 9 13 20 25 16 15 14 12 12 8 9 10 9 8 6 6 6 7 7 8 7 3 4 6 8 12 12 12 13 14 15 15 15 15 16 16
12 7 1 3 2 9 10 11 6 23 8 11 14 13 10 8 10 10 11 10 8 8 6 6 6 7 6 6 7 9 8 9 11 10 10 12 12 12 12 13 14 15 15
9 7 5 7 7 2 7 13 13 18 16 12 13 11 6 7 6 11 12 10 9 8 7 6 7 8 8 7 8 6 8 8 9 10 9 10 11 11 11 11 12 13 14
10 9 8 5 4 4 14 13 19 21 19 17 15 11 7 7 9 10 13 11 9 9 6 6 8 6 4 6 4 7 8 8 9 8 10 9 9 9 9 10 11 12 12
10 10 9 8 9 12 16 27 24 24 23 21 19 14 11 10 11 10 15 12 11 9 7 6 4 1 3 4 4 6 7 8 9 8 8 5 6 7 8 9 10 11 11
11 9 8 8 7 7 12 16 7 16 20 19 16 14 13 11 12 13 15 12 12 9 9 6 3 1 1 3 3 4 6 7 8 6 4 2 4 5 6 8 9 10 11
10 10 8 8 9 9 9 10 7 6 14 17 15 14 14 12 13 13 14 12 14 10 10 7 4 2 1 1 3 4 5 6 7 6 3 1 2 3 4 6 7 8 9
9 9 8 7 9 7 11 10 11 0 5 11 13 13 14 14 14 14 14 13 12 10 11 7 5 3 2 2 2 3 4 5 4 4 3 2 2 4 3 4 5 6 6
9 9 8 9 8 6 5 5 8 9 9 12 12 11 13 12 14 12 12 15 11 12 13 8 6 5 3 3 3 3 3 3 4 5 3 3 4 4 4 3 3 3 4
8 9 9 8 8 9 7 5 3 9 10 12 10 15 16 13 14 14 13 14 10 16 12 7 6 4 4 4 5 4 5 4 6 6 7 10 7 6 4 1 3 3 1
8 9 9 9 9 11 8 3 4 4 5 9 10 13 12 11 14 13 12 14 12 16 12 8 6 5 5 7 6 6 6 7 8 8 9 11 14 14 16 5 3 6 2
7 8 8 8 8 11 12 7 6 6 7 10 15 10 9 10 11 12 11 11 15 16 13 10 7 6 5 5 5 6 8 8 8 7 10 14 17 15 17 18 8 5 4
6 7 8 8 10 11 15 9 4 10 12 9 12 13 18 9 12 11 10 11 11 12 10 10 8 6 5 5 5 4 8 10 9 7 10 13 18 17 15 17 14 14 12
7 7 9 9 10 13 18 15 5 5 8 9 10 12 14 13 12 13 11 12 12 11 9 8 7 6 5 6 7 9 11 12 7 4 8 14 13 17 19 17 15 15 14
7 8 10 11 11 13 17 14 14 11 7 13 13 14 17 17 15 13 12 12 13 12 11 10 9 8 7 8 9 12 16 19 15 11 9 9 15 13 15 21 18 17 17
7 10 12 12 13 14 13 12 13 11 13 7 11 17 17 17 19 23 15 15 15 14 14 11 11 10 12 12 11 17 17 12 23 25 22 16 12 15 19 19 17 20 21
9 11 14 14 15 15 15 16 13 13 14 11 13 14 20 20 20 20 18 18 18 18 21 17 13 13 15 18 13 16 19 18 16 20 25 27 21 17 17 18 19 18 21
Wind_Direction
342 0 24 356 243 210 203 198 189 184 171 181 144 118 112 146 92 90 89 85 85 82 78 73 68 67 65 64 63 62 64 65 65 65 64 63 60 58 57 57 54 51 50
339 9 12 325 282 237 227 227 216 193 175 166 157 150 135 156 131 96 95 94 89 85 80 75 73 72 70 70 69 70 69 69 69 66 64 61 59 58 51 49 49 49 47
351 355 357 313 287 249 221 225 224 210 185 163 155 171 167 147 121 132 110 103 95 90 86 81 76 72 73 76 74 74 74 74 73 70 63 60 57 54 53 50 50 47 46
349 352 349 299 288 270 224 211 210 205 185 166 160 171 178 168 129 137 115 109 105 97 91 84 79 77 76 75 73 74 78 79 77 69 53 52 55 55 56 57 54 50 47
354 0 345 299 288 280 272 269 219 187 197 173 148 165 167 166 174 148 137 121 111 105 94 88 83 79 77 77 77 81 80 80 83 52 62 59 55 54 56 55 53 49 43
355 5 354 308 270 279 278 274 242 182 188 149 148 143 157 174 172 133 161 145 124 104 98 93 90 85 82 78 78 83 83 71 58 50 49 50 52 51 54 54 54 50 46
360 360 343 252 226 201 299 266 250 183 190 157 147 136 136 147 143 149 174 173 136 117 108 108 100 94 82 77 87 85 52 29 49 53 57 57 58 61 57 56 54 49 47
355 3 353 298 300 303 213 233 227 180 165 158 152 146 134 139 142 154 179 186 158 150 135 114 106 92 86 86 86 54 18 344 60 58 59 58 64 61 62 56 52 48 48
351 352 359 2 307 298 168 189 213 207 179 166 163 153 145 143 145 147 175 185 165 143 148 127 109 96 92 92 75 333 327 322 59 56 61 62 65 65 59 56 54 53 52
347 346 335 33 316 293 289 191 283 258 224 168 158 153 150 145 177 176 171 174 157 160 148 132 113 103 95 92 57 11 4 10 58 60 57 66 69 67 63 60 56 55 54
355 360 33 27 8 297 291 291 247 258 201 222 169 153 158 163 150 169 190 181 157 167 156 132 117 104 97 89 77 75 39 39 54 43 55 76 70 65 61 58 57 55 54
25 43 96 141 150 319 295 276 278 274 257 197 207 209 193 168 156 193 182 178 165 160 154 137 117 109 100 90 85 36 19 32 37 56 67 78 74 69 62 58 55 53 52
31 39 56 84 77 3 304 292 279 264 255 226 219 219 202 177 175 180 192 185 176 170 173 141 123 110 95 95 62 16 42 34 44 51 80 78 71 65 58 55 52 50 48
28 18 34 34 9 333 318 292 272 263 238 228 227 212 213 183 202 187 198 186 186 186 173 157 159 124 93 88 350 45 58 43 53 58 78 71 67 60 56 54 51 49 48
25 31 47 54 54 37 0 330 290 245 228 213 209 213 208 200 199 189 200 192 194 191 198 191 231 170 93 66 24 40 44 32 53 53 66 59 60 55 50 54 56 58 54
35 44 90 78 58 75 57 49 26 252 231 229 196 193 193 190 197 195 198 187 206 201 212 222 233 186 153 309 56 39 22 46 52 59 49 32 24 44 38 52 50 62 62
39 49 67 99 109 94 116 102 93 284 203 211 209 209 205 210 208 203 199 200 204 204 218 230 223 221 246 290 23 27 18 36 31 41 49 7 313 308 58 68 50 54 60
40 40 74 89 97 100 115 122 115 117 133 225 193 196 184 188 202 199 205 219 211 221 229 229 224 236 252 274 320 320 353 355 332 321 337 308 298 302 300 329 84 57 33
46 38 48 70 81 106 112 130 189 124 132 143 191 215 220 213 214 214 214 225 215 227 233 227 228 234 251 279 291 306 314 318 302 302 299 287 286 292 303 229 302 320 7
59 59 50 66 88 110 126 126 175 161 148 150 164 216 204 208 200 205 211 223 219 231 234 227 229 241 266 275 283 301 305 308 302 297 289 285 282 284 287 292 287 302 277
54 60 65 68 86 119 130 152 155 187 181 150 153 186 199 173 190 206 172 209 226 234 233 236 237 242 263 277 291 307 310 305 301 296 289 284 280 283 286 288 301 311 272
75 83 76 83 97 119 139 149 181 163 164 167 161 174 162 185 167 189 203 193 205 227 229 231 235 248 262 261 281 306 308 304 293 286 289 285 282 284 289 289 297 303 311
114 104 109 98 111 123 137 134 194 220 206 208 202 207 204 191 181 184 185 178 206 217 214 202 222 217 233 264 281 305 311 310 323 280 274 287 290 285 288 292 296 299 304
125 117 122 118 118 127 135 130 143 157 232 221 214 220 230 228 234 223 211 207 203 216 217 229 228 233 243 266 283 290 294 297 311 317 305 294 292 290 292 291 295 297 300
130 134 131 128 135 141 139 136 144 150 164 175 209 212 224 228 243 249 220 224 210 219 236 235 228 243 258 268 275 287 294 298 289 287 294 300 297 293 292 294 295 300 304
141 140 144 137 144 145 152 155 151 148 151 154 167 183 205 231 236 241 233 231 221 231 249 250 242 254 264 275 274 278 279 290 300 296 290 289 293 298 295 296 296 294 298